Time,TemperatureF,DewpointF,PressureIn,WindDirection,WindDirectionDegrees,WindSpeedMPH,WindSpeedGustMPH,Humidity,HourlyPrecipIn,Conditions,Clouds,dailyrainin,SoftwareType,DateUTC
2013-02-23 00:02:00,48.0,45.2,30.04,NW,316,1.0,1.0,90,0.00,,,0.00,Wunderground v.1.15,2013-02-23 05:02:00,
2013-02-23 00:04:00,48.1,45.3,30.04,NW,316,1.0,1.0,90,0.00,,,0.00,Wunderground v.1.15,2013-02-23 05:04:00,
2013-02-23 00:08:00,48.1,45.3,30.04,NW,316,0.0,1.0,90,0.00,,,0.00,Wunderground v.1.15,2013-02-23 05:08:00,
2013-02-23 00:12:00,48.1,45.3,30.03,NW,316,0.0,0.0,90,0.00,,,0.00,Wunderground v.1.15,2013-02-23 05:12:00,
2013-02-23 00:18:00,48.1,45.3,30.04,North,1,0.0,1.0,90,0.00,,,0.00,Wunderground v.1.15,2013-02-23 05:18:00,
2013-02-23 00:24:00,48.1,45.3,30.03,West,271,1.0,1.0,90,0.00,,,0.00,Wunderground v.1.15,2013-02-23 05:24:00,
2013-02-23 00:30:00,48.1,45.3,30.02,WSW,248,0.0,1.0,90,0.00,,,0.00,Wunderground v.1.15,2013-02-23 05:30:00,
2013-02-23 00:36:00,48.1,45.3,30.01,North,360,0.0,0.0,90,0.00,,,0.00,Wunderground v.1.15,2013-02-23 05:36:00,
2013-02-23 00:42:00,48.1,45.3,30.02,NNW,348,0.0,1.0,90,0.00,,,0.00,Wunderground v.1.15,2013-02-23 05:42:00,
2013-02-23 00:48:00,48.1,45.3,30.02,NNE,30,1.0,2.0,90,0.00,,,0.00,Wunderground v.1.15,2013-02-23 05:48:00,
2013-02-23 00:54:00,48.1,45.3,30.03,North,359,2.0,3.0,90,0.00,,,0.00,Wunderground v.1.15,2013-02-23 05:54:00,
2013-02-23 01:00:00,48.0,45.2,30.04,NNE,15,4.0,4.0,90,0.00,,,0.00,Wunderground v.1.15,2013-02-23 06:00:00,
2013-02-23 01:06:00,48.1,45.0,30.05,NNE,19,4.0,4.0,89,0.00,,,0.00,Wunderground v.1.15,2013-02-23 06:06:00,
2013-02-23 01:12:00,47.9,45.1,30.05,NE,39,3.0,3.0,90,0.00,,,0.00,Wunderground v.1.15,2013-02-23 06:12:00,
2013-02-23 01:18:00,47.5,45.0,30.05,NNE,15,2.0,4.0,91,0.00,,,0.00,Wunderground v.1.15,2013-02-23 06:18:00,
2013-02-23 01:24:00,47.3,45.1,30.05,NNE,25,3.0,5.0,92,0.00,,,0.00,Wunderground v.1.15,2013-02-23 06:24:00,
2013-02-23 01:30:00,47.1,44.9,30.04,NNE,25,2.0,2.0,92,0.00,,,0.00,Wunderground v.1.15,2013-02-23 06:30:00,
2013-02-23 01:36:00,47.0,45.1,30.02,SE,131,0.0,3.0,93,0.00,,,0.00,Wunderground v.1.15,2013-02-23 06:36:00,
2013-02-23 01:42:00,46.9,45.0,30.01,SSE,163,0.0,3.0,93,0.00,,,0.00,Wunderground v.1.15,2013-02-23 06:42:00,
2013-02-23 01:48:00,46.8,44.9,30.01,SE,129,0.0,3.0,93,0.00,,,0.00,Wunderground v.1.15,2013-02-23 06:48:00,
2013-02-23 01:54:00,46.8,44.9,30.02,NNE,13,0.0,3.0,93,0.00,,,0.00,Wunderground v.1.15,2013-02-23 06:54:00,
2013-02-23 02:00:00,46.7,44.8,30.02,NW,324,0.0,3.0,93,0.00,,,0.00,Wunderground v.1.15,2013-02-23 07:00:00,
2013-02-23 02:06:00,46.7,44.8,30.03,North,359,0.0,3.0,93,0.00,,,0.00,Wunderground v.1.15,2013-02-23 07:06:00,
2013-02-23 02:12:00,46.6,44.7,30.03,NNW,344,1.0,3.0,93,0.00,,,0.00,Wunderground v.1.15,2013-02-23 07:12:00,
2013-02-23 02:18:00,46.6,45.0,30.02,NW,322,1.0,3.0,94,0.00,,,0.00,Wunderground v.1.15,2013-02-23 07:18:00,
2013-02-23 02:24:00,46.5,44.9,30.02,NW,322,0.0,3.0,94,0.00,,,0.00,Wunderground v.1.15,2013-02-23 07:24:00,
2013-02-23 02:30:00,46.5,44.9,30.02,NW,310,0.0,3.0,94,0.00,,,0.00,Wunderground v.1.15,2013-02-23 07:30:00,
2013-02-23 02:36:00,46.5,44.9,30.01,NW,311,0.0,3.0,94,0.00,,,0.00,Wunderground v.1.15,2013-02-23 07:36:00,
2013-02-23 02:42:00,46.5,44.9,30.03,NW,321,1.0,3.0,94,0.00,,,0.01,Wunderground v.1.15,2013-02-23 07:42:00,
2013-02-23 02:48:00,46.4,44.8,30.04,North,354,2.0,3.0,94,0.00,,,0.01,Wunderground v.1.15,2013-02-23 07:48:00,
2013-02-23 02:54:00,46.4,44.8,30.04,NW,320,2.0,3.0,94,0.00,,,0.01,Wunderground v.1.15,2013-02-23 07:54:00,
2013-02-23 03:00:00,46.4,44.8,30.05,NNW,332,2.0,4.0,94,0.04,,,0.02,Wunderground v.1.15,2013-02-23 08:00:00,
2013-02-23 03:06:00,46.3,44.7,30.04,North,4,2.0,4.0,94,0.13,,,0.04,Wunderground v.1.15,2013-02-23 08:06:00,
2013-02-23 03:12:00,46.3,44.9,30.04,NW,322,2.0,3.0,95,0.14,,,0.05,Wunderground v.1.15,2013-02-23 08:12:00,
2013-02-23 03:18:00,46.2,44.8,30.03,NW,306,1.0,3.0,95,0.07,,,0.05,Wunderground v.1.15,2013-02-23 08:18:00,
2013-02-23 03:24:00,46.2,44.8,30.03,North,9,0.0,3.0,95,0.07,,,0.06,Wunderground v.1.15,2013-02-23 08:24:00,
2013-02-23 03:30:00,46.1,44.7,30.03,North,9,0.0,3.0,95,0.05,,,0.06,Wunderground v.1.15,2013-02-23 08:30:00,
2013-02-23 03:36:00,46.1,44.7,30.03,North,9,0.0,3.0,95,0.04,,,0.06,Wunderground v.1.15,2013-02-23 08:36:00,
2013-02-23 03:42:00,46.1,44.7,30.02,SW,225,0.0,3.0,95,0.00,,,0.07,Wunderground v.1.15,2013-02-23 08:42:00,
2013-02-23 03:48:00,46.1,44.7,30.02,SW,225,0.0,3.0,95,0.00,,,0.07,Wunderground v.1.15,2013-02-23 08:48:00,
2013-02-23 03:54:00,46.0,44.6,30.01,SW,228,0.0,3.0,95,0.00,,,0.07,Wunderground v.1.15,2013-02-23 08:54:00,
2013-02-23 04:00:00,46.0,44.6,30.01,SW,228,0.0,3.0,95,0.00,,,0.08,Wunderground v.1.15,2013-02-23 09:00:00,
2013-02-23 04:06:00,45.9,44.5,30.00,SW,228,0.0,3.0,95,0.00,,,0.08,Wunderground v.1.15,2013-02-23 09:06:00,
2013-02-23 04:12:00,45.9,44.5,29.99,South,186,0.0,3.0,95,0.00,,,0.08,Wunderground v.1.15,2013-02-23 09:12:00,
2013-02-23 04:18:00,45.8,44.4,29.99,East,96,0.0,3.0,95,0.00,,,0.08,Wunderground v.1.15,2013-02-23 09:18:00,
2013-02-23 04:24:00,45.7,44.4,29.99,ENE,69,0.0,3.0,95,0.00,,,0.08,Wunderground v.1.15,2013-02-23 09:24:00,
2013-02-23 04:30:00,45.7,44.4,29.99,ENE,69,0.0,3.0,95,0.00,,,0.08,Wunderground v.1.15,2013-02-23 09:30:00,
2013-02-23 04:36:00,45.7,44.4,29.99,ENE,69,0.0,3.0,95,0.00,,,0.08,Wunderground v.1.15,2013-02-23 09:36:00,
2013-02-23 04:42:00,45.7,44.6,29.98,SE,135,1.0,3.0,96,0.00,,,0.08,Wunderground v.1.15,2013-02-23 09:42:00,
2013-02-23 04:48:00,45.7,44.6,29.97,SSE,149,2.0,3.0,96,0.00,,,0.08,Wunderground v.1.15,2013-02-23 09:48:00,
2013-02-23 04:54:00,45.6,44.5,29.97,ESE,120,2.0,3.0,96,0.00,,,0.08,Wunderground v.1.15,2013-02-23 09:54:00,
2013-02-23 05:00:00,45.6,44.5,29.97,ESE,120,1.0,1.0,96,0.00,,,0.08,Wunderground v.1.15,2013-02-23 10:00:00,
2013-02-23 05:06:00,45.6,44.5,29.97,ESE,120,0.0,3.0,96,0.00,,,0.08,Wunderground v.1.15,2013-02-23 10:06:00,
2013-02-23 05:12:00,45.6,44.5,29.98,East,101,0.0,3.0,96,0.00,,,0.08,Wunderground v.1.15,2013-02-23 10:12:00,
2013-02-23 05:18:00,45.5,44.4,29.98,East,100,0.0,3.0,96,0.00,,,0.08,Wunderground v.1.15,2013-02-23 10:18:00,
2013-02-23 05:24:00,45.5,44.4,29.96,East,100,0.0,3.0,96,0.00,,,0.08,Wunderground v.1.15,2013-02-23 10:24:00,
2013-02-23 05:30:00,45.5,44.4,29.97,East,100,0.0,3.0,96,0.00,,,0.08,Wunderground v.1.15,2013-02-23 10:30:00,
2013-02-23 05:36:00,45.4,44.3,29.97,East,101,0.0,3.0,96,0.00,,,0.08,Wunderground v.1.15,2013-02-23 10:36:00,
2013-02-23 05:42:00,45.4,44.3,29.98,East,100,0.0,3.0,96,0.00,,,0.08,Wunderground v.1.15,2013-02-23 10:42:00,
2013-02-23 05:48:00,45.4,44.3,29.98,NNW,327,1.0,3.0,96,0.00,,,0.08,Wunderground v.1.15,2013-02-23 10:48:00,
2013-02-23 05:54:00,45.4,44.3,29.98,NW,307,1.0,3.0,96,0.00,,,0.08,Wunderground v.1.15,2013-02-23 10:54:00,
2013-02-23 06:00:00,45.5,44.4,29.98,NW,308,0.0,3.0,96,0.00,,,0.08,Wunderground v.1.15,2013-02-23 11:00:00,
2013-02-23 06:06:00,45.5,44.4,29.98,NW,308,0.0,3.0,96,0.00,,,0.08,Wunderground v.1.15,2013-02-23 11:06:00,
2013-02-23 06:12:00,45.5,44.4,29.98,North,357,0.0,3.0,96,0.00,,,0.08,Wunderground v.1.15,2013-02-23 11:12:00,
2013-02-23 06:18:00,45.6,44.5,29.98,NNW,334,0.0,3.0,96,0.00,,,0.08,Wunderground v.1.15,2013-02-23 11:18:00,
2013-02-23 06:24:00,45.6,44.5,29.98,NNW,335,0.0,3.0,96,0.00,,,0.08,Wunderground v.1.15,2013-02-23 11:24:00,
2013-02-23 06:30:00,45.5,44.4,29.98,NNW,334,0.0,3.0,96,0.00,,,0.08,Wunderground v.1.15,2013-02-23 11:30:00,
2013-02-23 06:36:00,45.6,44.5,29.98,North,4,0.0,3.0,96,0.00,,,0.08,Wunderground v.1.15,2013-02-23 11:36:00,
2013-02-23 06:42:00,45.6,44.5,29.98,North,4,0.0,3.0,96,0.00,,,0.08,Wunderground v.1.15,2013-02-23 11:42:00,
2013-02-23 06:48:00,45.5,44.4,29.98,North,5,0.0,3.0,96,0.00,,,0.08,Wunderground v.1.15,2013-02-23 11:48:00,
2013-02-23 06:54:00,45.5,44.4,29.98,NNE,26,0.0,3.0,96,0.00,,,0.08,Wunderground v.1.15,2013-02-23 11:54:00,
2013-02-23 07:00:00,45.5,44.4,29.98,NNE,19,0.0,3.0,96,0.00,,,0.08,Wunderground v.1.15,2013-02-23 12:00:00,
2013-02-23 07:06:00,45.5,44.4,29.98,NNE,20,0.0,3.0,96,0.00,,,0.08,Wunderground v.1.15,2013-02-23 12:06:00,
2013-02-23 07:12:00,45.5,44.4,29.98,NNE,19,0.0,3.0,96,0.00,,,0.08,Wunderground v.1.15,2013-02-23 12:12:00,
2013-02-23 07:18:00,45.5,44.4,29.98,NNE,22,0.0,3.0,96,0.00,,,0.08,Wunderground v.1.15,2013-02-23 12:18:00,
2013-02-23 07:24:00,45.6,44.5,29.98,NE,39,1.0,3.0,96,0.00,,,0.08,Wunderground v.1.15,2013-02-23 12:24:00,
2013-02-23 07:30:00,45.6,44.5,29.97,NE,40,0.0,3.0,96,0.00,,,0.08,Wunderground v.1.15,2013-02-23 12:30:00,
2013-02-23 07:36:00,45.6,44.5,29.98,NE,40,0.0,3.0,96,0.00,,,0.08,Wunderground v.1.15,2013-02-23 12:36:00,
2013-02-23 07:42:00,45.6,44.5,29.98,NE,39,0.0,3.0,96,0.00,,,0.08,Wunderground v.1.15,2013-02-23 12:42:00,
2013-02-23 07:48:00,45.6,44.5,29.98,NE,39,0.0,3.0,96,0.00,,,0.08,Wunderground v.1.15,2013-02-23 12:48:00,
2013-02-23 07:54:00,45.6,44.5,29.98,NE,39,0.0,3.0,96,0.00,,,0.08,Wunderground v.1.15,2013-02-23 12:54:00,
2013-02-23 08:00:00,45.7,44.6,29.98,NE,39,0.0,3.0,96,0.00,,,0.08,Wunderground v.1.15,2013-02-23 13:00:00,
2013-02-23 08:06:00,45.7,44.6,29.98,NE,39,0.0,3.0,96,0.00,,,0.08,Wunderground v.1.15,2013-02-23 13:06:00,
2013-02-23 08:12:00,45.8,44.7,29.98,NE,39,0.0,3.0,96,0.00,,,0.08,Wunderground v.1.15,2013-02-23 13:12:00,
2013-02-23 08:18:00,45.9,44.8,29.98,West,273,0.0,3.0,96,0.00,,,0.08,Wunderground v.1.15,2013-02-23 13:18:00,
2013-02-23 08:24:00,45.9,44.8,29.98,West,272,0.0,3.0,96,0.00,,,0.08,Wunderground v.1.15,2013-02-23 13:24:00,
2013-02-23 08:30:00,45.9,44.8,29.98,West,273,0.0,3.0,96,0.00,,,0.08,Wunderground v.1.15,2013-02-23 13:30:00,
2013-02-23 08:36:00,46.0,44.9,29.98,West,271,0.0,3.0,96,0.00,,,0.08,Wunderground v.1.15,2013-02-23 13:36:00,
2013-02-23 08:42:00,46.1,45.0,29.98,West,274,0.0,3.0,96,0.00,,,0.08,Wunderground v.1.15,2013-02-23 13:42:00,
2013-02-23 08:48:00,46.1,45.0,29.98,West,274,0.0,3.0,96,0.00,,,0.08,Wunderground v.1.15,2013-02-23 13:48:00,
2013-02-23 08:54:00,46.0,44.9,29.97,SSW,212,0.0,3.0,96,0.00,,,0.08,Wunderground v.1.15,2013-02-23 13:54:00,
2013-02-23 09:00:00,46.1,45.0,29.98,SSW,212,0.0,3.0,96,0.00,,,0.08,Wunderground v.1.15,2013-02-23 14:00:00,
2013-02-23 09:06:00,46.4,45.6,29.98,SSW,212,0.0,3.0,97,0.00,,,0.08,Wunderground v.1.15,2013-02-23 14:06:00,
2013-02-23 09:12:00,46.5,45.7,29.98,SSW,212,0.0,3.0,97,0.00,,,0.08,Wunderground v.1.15,2013-02-23 14:12:00,
2013-02-23 09:18:00,46.5,45.4,29.98,SSW,213,0.0,3.0,96,0.00,,,0.08,Wunderground v.1.15,2013-02-23 14:18:00,
2013-02-23 09:24:00,46.3,45.2,29.98,SW,218,0.0,3.0,96,0.00,,,0.08,Wunderground v.1.15,2013-02-23 14:24:00,
2013-02-23 09:30:00,46.4,45.3,29.98,SW,229,0.0,3.0,96,0.00,,,0.08,Wunderground v.1.15,2013-02-23 14:30:00,
2013-02-23 09:36:00,46.4,45.3,29.98,WSW,241,0.0,3.0,96,0.00,,,0.08,Wunderground v.1.15,2013-02-23 14:36:00,
2013-02-23 09:42:00,46.5,45.4,29.97,SSW,210,1.0,3.0,96,0.00,,,0.08,Wunderground v.1.15,2013-02-23 14:42:00,
2013-02-23 09:48:00,46.4,45.3,29.97,WSW,241,1.0,3.0,96,0.00,,,0.08,Wunderground v.1.15,2013-02-23 14:48:00,
2013-02-23 09:54:00,46.3,45.2,29.97,WSW,238,2.0,3.0,96,0.00,,,0.08,Wunderground v.1.15,2013-02-23 14:54:00,
2013-02-23 10:00:00,46.3,45.2,29.97,WSW,238,1.0,3.0,96,0.00,,,0.08,Wunderground v.1.15,2013-02-23 15:00:00,
2013-02-23 10:06:00,46.3,45.2,29.97,West,279,1.0,3.0,96,0.00,,,0.08,Wunderground v.1.15,2013-02-23 15:06:00,
2013-02-23 10:12:00,46.3,45.2,29.96,West,279,2.0,3.0,96,0.00,,,0.08,Wunderground v.1.15,2013-02-23 15:12:00,
2013-02-23 10:18:00,46.4,45.3,29.97,West,274,2.0,3.0,96,0.00,,,0.08,Wunderground v.1.15,2013-02-23 15:18:00,
2013-02-23 10:24:00,46.4,45.3,29.97,WSW,246,1.0,3.0,96,0.00,,,0.08,Wunderground v.1.15,2013-02-23 15:24:00,
2013-02-23 10:30:00,46.4,45.3,29.97,WSW,249,1.0,3.0,96,0.00,,,0.08,Wunderground v.1.15,2013-02-23 15:30:00,
2013-02-23 10:36:00,46.5,45.4,29.97,SW,221,0.0,3.0,96,0.00,,,0.08,Wunderground v.1.15,2013-02-23 15:36:00,
2013-02-23 10:42:00,46.6,45.5,29.96,South,186,0.0,3.0,96,0.00,,,0.08,Wunderground v.1.15,2013-02-23 15:42:00,
2013-02-23 10:48:00,46.7,45.6,29.96,SSE,150,0.0,3.0,96,0.00,,,0.08,Wunderground v.1.15,2013-02-23 15:48:00,
2013-02-23 10:54:00,46.9,46.1,29.96,SSE,151,1.0,3.0,97,0.00,,,0.08,Wunderground v.1.15,2013-02-23 15:54:00,
2013-02-23 11:00:00,47.1,46.3,29.96,SSE,157,0.0,3.0,97,0.00,,,0.08,Wunderground v.1.15,2013-02-23 16:00:00,
2013-02-23 11:05:00,47.2,46.4,29.96,SW,233,0.0,3.0,97,0.00,,,0.08,Wunderground v.1.15,2013-02-23 16:05:00,
2013-02-23 11:12:00,47.1,46.0,29.96,SSW,207,1.0,3.0,96,0.00,,,0.08,Wunderground v.1.15,2013-02-23 16:12:00,
2013-02-23 11:18:00,46.8,45.7,29.96,SW,235,2.0,3.0,96,0.00,,,0.08,Wunderground v.1.15,2013-02-23 16:18:00,
2013-02-23 11:24:00,47.1,46.0,29.96,SW,225,2.0,3.0,96,0.00,,,0.08,Wunderground v.1.15,2013-02-23 16:24:00,
2013-02-23 11:30:00,47.1,46.0,29.96,SW,214,1.0,3.0,96,0.00,,,0.08,Wunderground v.1.15,2013-02-23 16:30:00,
2013-02-23 11:36:00,47.2,46.1,29.96,SW,224,1.0,3.0,96,0.00,,,0.08,Wunderground v.1.15,2013-02-23 16:36:00,
2013-02-23 11:42:00,47.3,46.2,29.96,WSW,242,2.0,3.0,96,0.00,,,0.08,Wunderground v.1.15,2013-02-23 16:42:00,
2013-02-23 11:48:00,47.4,46.3,29.96,SW,225,2.0,3.0,96,0.00,,,0.08,Wunderground v.1.15,2013-02-23 16:48:00,
2013-02-23 11:54:00,47.5,46.4,29.95,SW,225,3.0,3.0,96,0.00,,,0.08,Wunderground v.1.15,2013-02-23 16:54:00,
2013-02-23 12:00:00,47.6,46.5,29.95,WSW,238,3.0,3.0,96,0.00,,,0.08,Wunderground v.1.15,2013-02-23 17:00:00,
2013-02-23 12:06:00,47.7,46.6,29.95,SW,233,3.0,3.0,96,0.00,,,0.08,Wunderground v.1.15,2013-02-23 17:06:00,
2013-02-23 12:12:00,47.7,46.6,29.95,SW,233,3.0,3.0,96,0.00,,,0.08,Wunderground v.1.15,2013-02-23 17:12:00,
2013-02-23 12:18:00,47.8,46.7,29.94,WSW,238,3.0,3.0,96,0.00,,,0.08,Wunderground v.1.15,2013-02-23 17:18:00,
2013-02-23 12:23:00,48.1,47.0,29.94,SSW,208,3.0,3.0,96,0.00,,,0.08,Wunderground v.1.15,2013-02-23 17:23:00,
2013-02-23 12:30:00,48.5,47.4,29.94,SW,218,2.0,3.0,96,0.00,,,0.08,Wunderground v.1.15,2013-02-23 17:30:00,
2013-02-23 12:36:00,48.9,47.5,29.94,SSW,205,2.0,3.0,95,0.00,,,0.08,Wunderground v.1.15,2013-02-23 17:36:00,
2013-02-23 12:42:00,49.3,47.6,29.94,SW,214,2.0,3.0,94,0.00,,,0.08,Wunderground v.1.15,2013-02-23 17:42:00,
2013-02-23 12:48:00,49.9,48.0,29.93,SW,214,1.0,3.0,93,0.00,,,0.08,Wunderground v.1.15,2013-02-23 17:48:00,
2013-02-23 12:54:00,50.0,47.8,29.93,SW,225,1.0,3.0,92,0.00,,,0.08,Wunderground v.1.15,2013-02-23 17:54:00,
2013-02-23 13:00:00,49.9,47.4,29.92,SW,214,2.0,3.0,91,0.00,,,0.08,Wunderground v.1.15,2013-02-23 18:00:00,
2013-02-23 13:06:00,50.0,47.5,29.92,SW,224,2.0,3.0,91,0.00,,,0.08,Wunderground v.1.15,2013-02-23 18:06:00,
2013-02-23 13:12:00,50.1,47.6,29.92,SW,231,2.0,3.0,91,0.00,,,0.08,Wunderground v.1.15,2013-02-23 18:12:00,
2013-02-23 13:18:00,50.3,46.6,29.92,SW,225,3.0,5.0,87,0.00,,,0.08,Wunderground v.1.15,2013-02-23 18:18:00,
2013-02-23 13:24:00,50.6,46.9,29.91,SW,233,5.0,5.0,87,0.00,,,0.08,Wunderground v.1.15,2013-02-23 18:24:00,
2013-02-23 13:30:00,51.0,46.6,29.91,SW,214,5.0,6.0,85,0.00,,,0.08,Wunderground v.1.15,2013-02-23 18:30:00,
2013-02-23 13:36:00,51.6,47.2,29.91,WNW,283,5.0,6.0,85,0.00,,,0.08,Wunderground v.1.15,2013-02-23 18:36:00,
2013-02-23 13:42:00,52.3,47.3,29.91,WSW,249,4.0,5.0,83,0.00,,,0.08,Wunderground v.1.15,2013-02-23 18:42:00,
2013-02-23 13:48:00,53.0,48.3,29.91,West,274,5.0,5.0,84,0.00,,,0.08,Wunderground v.1.15,2013-02-23 18:48:00,
2013-02-23 13:54:00,53.3,47.3,29.91,NW,311,5.0,6.0,80,0.00,,,0.08,Wunderground v.1.15,2013-02-23 18:54:00,
2013-02-23 14:00:00,53.8,48.1,29.91,West,262,5.0,5.0,81,0.00,,,0.08,Wunderground v.1.15,2013-02-23 19:00:00,
2013-02-23 14:06:00,53.7,47.7,29.90,WSW,241,5.0,6.0,80,0.00,,,0.08,Wunderground v.1.15,2013-02-23 19:06:00,
2013-02-23 14:12:00,53.5,47.5,29.90,WSW,257,6.0,7.0,80,0.00,,,0.08,Wunderground v.1.15,2013-02-23 19:12:00,
2013-02-23 14:18:00,53.9,47.9,29.90,NW,305,6.0,7.0,80,0.00,,,0.08,Wunderground v.1.15,2013-02-23 19:18:00,
2013-02-23 14:24:00,53.7,47.3,29.91,WNW,287,6.0,7.0,79,0.00,,,0.08,Wunderground v.1.15,2013-02-23 19:24:00,
2013-02-23 14:30:00,53.9,47.5,29.90,WNW,298,7.0,7.0,79,0.00,,,0.08,Wunderground v.1.15,2013-02-23 19:30:00,
2013-02-23 14:36:00,53.8,47.4,29.90,WNW,295,6.0,7.0,79,0.00,,,0.08,Wunderground v.1.15,2013-02-23 19:36:00,
2013-02-23 14:42:00,53.3,47.0,29.90,NW,323,8.0,8.0,79,0.00,,,0.08,Wunderground v.1.15,2013-02-23 19:42:00,
2013-02-23 14:48:00,53.2,47.2,29.90,NW,322,8.0,9.0,80,0.00,,,0.08,Wunderground v.1.15,2013-02-23 19:48:00,
2013-02-23 14:54:00,53.4,47.0,29.90,NW,314,8.0,9.0,79,0.00,,,0.08,Wunderground v.1.15,2013-02-23 19:54:00,
2013-02-23 15:00:00,53.5,47.5,29.90,NW,310,8.0,8.0,80,0.00,,,0.08,Wunderground v.1.15,2013-02-23 20:00:00,
2013-02-23 15:06:00,53.6,47.6,29.90,NW,307,8.0,9.0,80,0.00,,,0.08,Wunderground v.1.15,2013-02-23 20:06:00,
2013-02-23 15:12:00,53.7,47.7,29.89,NW,318,8.0,9.0,80,0.00,,,0.08,Wunderground v.1.15,2013-02-23 20:12:00,
2013-02-23 15:18:00,54.1,48.1,29.89,NW,314,8.0,9.0,80,0.00,,,0.08,Wunderground v.1.15,2013-02-23 20:18:00,
2013-02-23 15:24:00,54.4,47.7,29.89,WNW,285,7.0,9.0,78,0.00,,,0.08,Wunderground v.1.15,2013-02-23 20:24:00,
2013-02-23 15:30:00,54.9,47.8,29.88,WNW,288,6.0,6.0,77,0.00,,,0.08,Wunderground v.1.15,2013-02-23 20:30:00,
2013-02-23 15:36:00,54.8,47.4,29.89,West,281,6.0,8.0,76,0.00,,,0.08,Wunderground v.1.15,2013-02-23 20:36:00,
2013-02-23 15:42:00,55.0,47.6,29.89,NW,315,6.0,6.0,76,0.00,,,0.08,Wunderground v.1.15,2013-02-23 20:42:00,
2013-02-23 15:48:00,54.8,47.4,29.88,NW,321,6.0,8.0,76,0.00,,,0.08,Wunderground v.1.15,2013-02-23 20:48:00,
2013-02-23 15:54:00,54.8,47.4,29.89,NW,315,6.0,6.0,76,0.00,,,0.08,Wunderground v.1.15,2013-02-23 20:54:00,
2013-02-23 16:00:00,54.6,47.5,29.89,West,271,6.0,7.0,77,0.00,,,0.08,Wunderground v.1.15,2013-02-23 21:00:00,
2013-02-23 16:06:00,54.5,47.4,29.89,WNW,287,6.0,7.0,77,0.00,,,0.08,Wunderground v.1.15,2013-02-23 21:06:00,
2013-02-23 16:12:00,54.5,47.1,29.90,NW,316,5.0,6.0,76,0.00,,,0.08,Wunderground v.1.15,2013-02-23 21:12:00,
2013-02-23 16:18:00,54.3,46.9,29.89,NW,315,5.0,6.0,76,0.00,,,0.08,Wunderground v.1.15,2013-02-23 21:18:00,
2013-02-23 16:24:00,54.2,47.1,29.90,WNW,294,5.0,5.0,77,0.00,,,0.08,Wunderground v.1.15,2013-02-23 21:24:00,
2013-02-23 16:30:00,54.1,47.0,29.89,West,273,4.0,4.0,77,0.00,,,0.08,Wunderground v.1.15,2013-02-23 21:30:00,
2013-02-23 16:36:00,54.0,47.3,29.89,NW,315,4.0,6.0,78,0.00,,,0.08,Wunderground v.1.15,2013-02-23 21:36:00,
2013-02-23 16:42:00,54.0,47.3,29.89,NW,318,4.0,5.0,78,0.00,,,0.08,Wunderground v.1.15,2013-02-23 21:42:00,
2013-02-23 16:48:00,53.8,47.4,29.89,NNW,334,4.0,6.0,79,0.00,,,0.08,Wunderground v.1.15,2013-02-23 21:48:00,
2013-02-23 16:54:00,53.7,47.3,29.89,NW,316,5.0,5.0,79,0.00,,,0.08,Wunderground v.1.15,2013-02-23 21:54:00,
2013-02-23 17:00:00,53.5,47.5,29.88,NW,319,5.0,5.0,80,0.00,,,0.08,Wunderground v.1.15,2013-02-23 22:00:00,
2013-02-23 17:06:00,53.3,47.3,29.89,NW,318,4.0,6.0,80,0.00,,,0.08,Wunderground v.1.15,2013-02-23 22:06:00,
2013-02-23 17:12:00,53.1,47.4,29.88,NW,317,5.0,6.0,81,0.00,,,0.08,Wunderground v.1.15,2013-02-23 22:12:00,
2013-02-23 17:18:00,53.0,47.3,29.88,NNW,336,5.0,6.0,81,0.00,,,0.08,Wunderground v.1.15,2013-02-23 22:18:00,
2013-02-23 17:23:00,52.8,47.1,29.88,NW,315,5.0,6.0,81,0.00,,,0.08,Wunderground v.1.15,2013-02-23 22:23:00,
2013-02-23 17:30:00,52.6,46.9,29.88,NW,314,5.0,5.0,81,0.00,,,0.08,Wunderground v.1.15,2013-02-23 22:30:00,
2013-02-23 17:36:00,52.4,46.7,29.87,NW,310,5.0,6.0,81,0.00,,,0.08,Wunderground v.1.15,2013-02-23 22:36:00,
2013-02-23 17:42:00,52.2,46.9,29.87,NW,309,4.0,4.0,82,0.00,,,0.08,Wunderground v.1.15,2013-02-23 22:42:00,
2013-02-23 17:48:00,52.0,46.7,29.87,NW,317,3.0,4.0,82,0.00,,,0.08,Wunderground v.1.15,2013-02-23 22:48:00,
2013-02-23 17:54:00,51.8,46.5,29.87,West,267,2.0,3.0,82,0.00,,,0.08,Wunderground v.1.15,2013-02-23 22:54:00,
2013-02-23 18:00:00,51.5,46.5,29.87,NW,318,2.0,3.0,83,0.00,,,0.08,Wunderground v.1.15,2013-02-23 23:00:00,
2013-02-23 18:06:00,51.3,46.6,29.87,WNW,287,2.0,3.0,84,0.00,,,0.08,Wunderground v.1.15,2013-02-23 23:06:00,
2013-02-23 18:12:00,51.0,46.6,29.87,WNW,289,2.0,3.0,85,0.00,,,0.08,Wunderground v.1.15,2013-02-23 23:12:00,
2013-02-23 18:18:00,50.8,46.5,29.86,WNW,295,1.0,3.0,85,0.00,,,0.08,Wunderground v.1.15,2013-02-23 23:18:00,
2013-02-23 18:24:00,50.4,46.4,29.87,WNW,295,0.0,3.0,86,0.00,,,0.08,Wunderground v.1.15,2013-02-23 23:24:00,
2013-02-23 18:30:00,50.1,46.4,29.87,WNW,295,0.0,3.0,87,0.00,,,0.08,Wunderground v.1.15,2013-02-23 23:30:00,
2013-02-23 18:36:00,49.9,46.2,29.87,NW,322,0.0,3.0,87,0.00,,,0.08,Wunderground v.1.15,2013-02-23 23:36:00,
2013-02-23 18:42:00,49.8,46.1,29.87,NW,322,0.0,3.0,87,0.00,,,0.08,Wunderground v.1.15,2013-02-23 23:42:00,
2013-02-23 18:48:00,49.7,46.3,29.87,NW,322,0.0,3.0,88,0.00,,,0.08,Wunderground v.1.15,2013-02-23 23:48:00,
2013-02-23 18:54:00,49.3,45.9,29.87,NW,322,0.0,3.0,88,0.00,,,0.08,Wunderground v.1.15,2013-02-23 23:54:00,
2013-02-23 19:00:00,48.9,45.8,29.87,NW,322,0.0,3.0,89,0.00,,,0.08,Wunderground v.1.15,2013-02-24 00:00:00,
2013-02-23 19:06:00,48.6,45.5,29.86,NW,324,0.0,3.0,89,0.00,,,0.08,Wunderground v.1.15,2013-02-24 00:06:00,
2013-02-23 19:12:00,48.5,45.4,29.87,NW,325,0.0,3.0,89,0.00,,,0.08,Wunderground v.1.15,2013-02-24 00:12:00,
2013-02-23 19:18:00,48.4,45.6,29.87,NW,324,0.0,3.0,90,0.00,,,0.08,Wunderground v.1.15,2013-02-24 00:18:00,
2013-02-23 19:24:00,48.3,45.5,29.86,NW,324,0.0,3.0,90,0.00,,,0.08,Wunderground v.1.15,2013-02-24 00:24:00,
2013-02-23 19:30:00,48.0,45.2,29.86,NW,324,0.0,3.0,90,0.00,,,0.08,Wunderground v.1.15,2013-02-24 00:30:00,
2013-02-23 19:36:00,47.9,45.1,29.86,NW,324,0.0,3.0,90,0.00,,,0.08,Wunderground v.1.15,2013-02-24 00:36:00,
2013-02-23 19:41:00,47.6,45.1,29.86,NW,325,0.0,3.0,91,0.00,,,0.08,Wunderground v.1.15,2013-02-24 00:41:00,
2013-02-23 19:48:00,47.5,45.0,29.87,NW,324,0.0,3.0,91,0.00,,,0.08,Wunderground v.1.15,2013-02-24 00:48:00,
2013-02-23 19:54:00,47.7,45.5,29.87,North,357,0.0,3.0,92,0.00,,,0.08,Wunderground v.1.15,2013-02-24 00:54:00,
2013-02-23 20:00:00,47.8,45.3,29.88,NNE,13,1.0,3.0,91,0.00,,,0.08,Wunderground v.1.15,2013-02-24 01:00:00,
2013-02-23 20:06:00,47.7,45.2,29.87,NNE,27,2.0,3.0,91,0.00,,,0.08,Wunderground v.1.15,2013-02-24 01:06:00,
2013-02-23 20:12:00,47.5,45.0,29.88,NE,37,1.0,3.0,91,0.00,,,0.08,Wunderground v.1.15,2013-02-24 01:12:00,
2013-02-23 20:18:00,47.6,45.4,29.87,NNE,27,2.0,3.0,92,0.00,,,0.08,Wunderground v.1.15,2013-02-24 01:18:00,
2013-02-23 20:24:00,47.5,45.0,29.87,NE,34,1.0,3.0,91,0.00,,,0.08,Wunderground v.1.15,2013-02-24 01:24:00,
2013-02-23 20:30:00,47.1,44.6,29.87,NNE,33,1.0,3.0,91,0.00,,,0.08,Wunderground v.1.15,2013-02-24 01:30:00,
2013-02-23 20:36:00,47.2,45.0,29.88,NNE,29,1.0,3.0,92,0.00,,,0.08,Wunderground v.1.15,2013-02-24 01:36:00,
2013-02-23 20:42:00,47.1,44.9,29.88,NNE,32,1.0,3.0,92,0.00,,,0.08,Wunderground v.1.15,2013-02-24 01:42:00,
2013-02-23 20:48:00,47.2,45.0,29.88,NE,37,1.0,3.0,92,0.00,,,0.08,Wunderground v.1.15,2013-02-24 01:48:00,
2013-02-23 20:54:00,47.1,44.9,29.88,NNE,31,1.0,3.0,92,0.00,,,0.08,Wunderground v.1.15,2013-02-24 01:54:00,
2013-02-23 21:00:00,47.2,45.3,29.88,North,9,2.0,3.0,93,0.00,,,0.08,Wunderground v.1.15,2013-02-24 02:00:00,
2013-02-23 21:06:00,47.5,45.0,29.88,North,8,2.0,4.0,91,0.00,,,0.08,Wunderground v.1.15,2013-02-24 02:06:00,
2013-02-23 21:12:00,47.2,44.4,29.88,North,352,2.0,3.0,90,0.00,,,0.08,Wunderground v.1.15,2013-02-24 02:12:00,
2013-02-23 21:17:00,46.8,44.6,29.89,North,360,1.0,3.0,92,0.00,,,0.08,Wunderground v.1.15,2013-02-24 02:17:00,
2013-02-23 21:24:00,46.9,44.7,29.89,NW,323,1.0,3.0,92,0.00,,,0.08,Wunderground v.1.15,2013-02-24 02:24:00,
2013-02-23 21:30:00,46.7,44.5,29.89,NW,323,1.0,1.0,92,0.00,,,0.08,Wunderground v.1.15,2013-02-24 02:30:00,
2013-02-23 21:36:00,46.3,44.4,29.89,NW,323,0.0,3.0,93,0.00,,,0.08,Wunderground v.1.15,2013-02-24 02:36:00,
2013-02-23 21:42:00,46.0,44.1,29.90,NW,309,0.0,3.0,93,0.00,,,0.08,Wunderground v.1.15,2013-02-24 02:42:00,
2013-02-23 21:47:00,46.0,44.4,29.90,NW,309,0.0,3.0,94,0.00,,,0.08,Wunderground v.1.15,2013-02-24 02:47:00,
2013-02-23 21:54:00,46.1,44.5,29.90,NW,309,0.0,3.0,94,0.00,,,0.08,Wunderground v.1.15,2013-02-24 02:54:00,
2013-02-23 22:00:00,45.9,44.3,29.91,West,261,0.0,3.0,94,0.00,,,0.08,Wunderground v.1.15,2013-02-24 03:00:00,
2013-02-23 22:05:00,45.9,44.3,29.91,West,262,0.0,3.0,94,0.00,,,0.08,Wunderground v.1.15,2013-02-24 03:05:00,
2013-02-23 22:12:00,45.7,44.1,29.91,West,262,0.0,3.0,94,0.00,,,0.08,Wunderground v.1.15,2013-02-24 03:12:00,
2013-02-23 22:18:00,45.7,44.4,29.91,NNW,329,0.0,3.0,95,0.00,,,0.08,Wunderground v.1.15,2013-02-24 03:18:00,
2013-02-23 22:24:00,46.1,44.7,29.91,NNW,347,0.0,3.0,95,0.00,,,0.08,Wunderground v.1.15,2013-02-24 03:24:00,
2013-02-23 22:30:00,45.8,44.2,29.91,SSW,197,0.0,3.0,94,0.00,,,0.08,Wunderground v.1.15,2013-02-24 03:30:00,
2013-02-23 22:36:00,45.6,44.0,29.91,SSW,199,0.0,3.0,94,0.00,,,0.08,Wunderground v.1.15,2013-02-24 03:36:00,
2013-02-23 22:42:00,45.3,43.7,29.91,SSE,162,0.0,3.0,94,0.00,,,0.08,Wunderground v.1.15,2013-02-24 03:42:00,
2013-02-23 22:48:00,44.9,43.3,29.92,NE,39,1.0,3.0,94,0.00,,,0.08,Wunderground v.1.15,2013-02-24 03:48:00,
2013-02-23 22:54:00,45.3,44.0,29.92,NNE,25,2.0,5.0,95,0.00,,,0.08,Wunderground v.1.15,2013-02-24 03:54:00,
2013-02-23 23:00:00,46.6,41.4,29.92,NE,34,6.0,6.0,82,0.00,,,0.08,Wunderground v.1.15,2013-02-24 04:00:00,
2013-02-23 23:06:00,46.9,40.1,29.92,NE,44,6.0,8.0,77,0.00,,,0.08,Wunderground v.1.15,2013-02-24 04:06:00,
2013-02-23 23:12:00,46.8,39.3,29.92,NNE,22,5.0,6.0,75,0.00,,,0.08,Wunderground v.1.15,2013-02-24 04:12:00,
2013-02-23 23:18:00,46.5,39.0,29.92,NNE,30,4.0,6.0,75,0.00,,,0.08,Wunderground v.1.15,2013-02-24 04:18:00,
2013-02-23 23:24:00,46.3,38.1,29.93,NE,49,5.0,10.0,73,0.00,,,0.08,Wunderground v.1.15,2013-02-24 04:24:00,
2013-02-23 23:30:00,46.4,37.9,29.94,NE,39,7.0,7.0,72,0.00,,,0.08,Wunderground v.1.15,2013-02-24 04:30:00,
2013-02-23 23:36:00,46.3,37.8,29.93,NE,48,5.0,7.0,72,0.00,,,0.08,Wunderground v.1.15,2013-02-24 04:36:00,
2013-02-23 23:42:00,46.3,37.4,29.92,NE,39,3.0,4.0,71,0.00,,,0.08,Wunderground v.1.15,2013-02-24 04:42:00,
2013-02-23 23:48:00,46.1,37.2,29.93,NNE,29,2.0,4.0,71,0.00,,,0.08,Wunderground v.1.15,2013-02-24 04:48:00,
2013-02-23 23:54:00,45.9,37.4,29.92,North,11,2.0,3.0,72,0.00,,,0.08,Wunderground v.1.15,2013-02-24 04:54:00,